CAPE
1336 1521 1624 1850 1821 1602 1469 1447 1530 2085 2253 2084 1965 1929 2039 2114 2011 1979 2182 2395 2354 2276 2422 1961 2002 2001 1666 1655 1931 1790 1610 1409 1738 2292 2264 2223 1905 1918 1672 1858 1753 1154 1667
1532 1838 1664 1849 1931 1803 1614 1564 1668 2072 2458 2376 2242 2077 2141 2124 2042 2078 2346 2472 2564 2486 2522 2065 2077 1617 1294 1391 1448 1424 1346 1201 1417 2045 2285 2109 2036 1931 1742 1589 1422 1385 1790
2075 2063 2040 1835 1961 1903 1841 1800 1907 2122 2585 2696 2547 2301 2233 2237 2176 2165 2313 2476 2650 2809 2804 2375 2211 1828 1366 1355 1183 1306 1275 1209 1377 1953 2227 1635 1797 2001 1752 1630 1803 1777 1938
2055 2094 2178 1873 2000 1944 1858 1842 1998 2289 2455 2700 2739 2584 2406 2326 2327 2310 2255 2423 2736 2909 2923 2445 2422 2190 1713 1180 1085 1228 1241 1186 1370 1742 1538 1490 1625 1941 1804 1567 1583 1723 1875
1951 2051 2026 1882 1996 1976 1901 1890 1951 2185 2230 2366 2627 2784 2725 2650 2617 2514 2287 2369 2814 3123 3079 2606 2619 2624 1581 977 926 1100 1185 1141 1191 1294 1584 1720 1729 1863 1807 1830 1687 1995 1900
1898 2099 1759 1801 1957 2010 1980 1989 1998 1980 1966 2012 2266 2694 2836 2864 2822 2587 2331 2574 2995 3077 3083 2764 2573 2459 1415 955 825 997 1100 1047 959 1358 1526 1639 1725 1866 1875 2121 1876 1743 1757
1973 2096 2200 1780 1908 2036 2127 2096 2008 1866 1813 1843 2011 2300 2609 2728 2700 2459 2339 2607 2917 2999 2901 2694 2254 2070 1471 1090 936 841 982 980 1383 1387 1454 1601 1867 1795 1910 1967 1993 1830 1835
2240 2141 2273 1882 1847 1971 2081 2047 1997 1897 1723 1762 1837 2049 2354 2488 2430 2271 2230 2471 2686 2741 2682 2511 2349 1861 1450 1181 973 742 783 895 1087 1527 1444 1397 1527 1700 1874 2127 1897 1857 1681
2398 2150 2257 2519 2388 1804 1805 1857 1859 1882 1787 1733 1764 1841 2044 2153 2243 2162 2168 2338 2492 2467 2376 2262 2160 1643 1409 1206 968 794 689 775 1218 1452 1207 1387 1109 1537 1846 2232 1878 1817 1780
2342 2348 2165 2121 2595 2729 2643 1592 1486 1615 1717 1703 1701 1762 1805 1858 1865 1884 1958 2118 2305 2240 2154 2097 1940 1595 1473 1286 1112 956 682 655 1193 1328 1341 1193 290 1078 1198 2208 2031 1804 1648
1783 2493 2321 2142 2209 2467 2497 2307 1643 1542 1587 1560 1675 1643 1786 2235 2195 2107 1834 1785 1932 2024 2033 2053 1817 1708 1552 1394 1298 1058 706 1344 1448 1209 1249 645 463 763 1057 2246 1978 1805 1757
0 63 2275 2290 2280 2247 2060 2247 2430 2463 2539 2562 2426 2390 2332 2182 2167 1973 1777 1468 1517 1550 1700 1774 1868 1535 1319 2006 1751 969 1502 1464 1464 1315 1289 290 613 1055 1100 2093 1964 1872 1756
0 0 29 2418 2334 2337 2335 2415 2256 2262 2259 2237 2311 2134 1999 2107 2188 1885 1672 1955 2153 1456 2109 1868 2233 2352 2300 2299 1986 1773 1561 1540 1425 1352 1062 257 528 1213 1417 1734 1946 2078 1821
0 0 0 1799 2412 2403 2415 2456 2019 1804 1649 1862 1859 2044 2229 2171 2010 1869 1735 1467 1526 1737 2009 2131 2069 2255 2402 2310 2302 1925 1696 1457 1337 1297 1224 436 314 961 1524 1977 2019 2136 1869
0 0 0 880 2543 2497 2460 2463 2297 1971 1221 1453 1591 1766 1953 1952 1984 1821 1708 1817 1886 1502 1358 1447 1831 1744 1588 1921 2074 2204 1831 1650 1514 1468 1442 500 234 417 1101 1538 1837 1861 2002
0 0 0 0 10 1535 1906 2033 1374 1003 727 752 620 782 1410 1379 1332 1471 1712 1761 1741 1561 1539 1644 1343 1386 1337 1505 1393 1663 2087 1791 1587 1554 1448 1238 179 142 347 953 1568 2013 1727
0 0 0 0 0 0 0 0 7 0 2 0 1 0 0 0 21 326 1143 1045 1571 1560 1318 1578 1153 1303 1159 1263 1402 1236 1262 1574 1646 1539 1520 1399 949 91 61 139 756 1407 1719
0 0 0 0 0 0 0 0 0 0 1 0 0 0 0 0 0 1 2 3 0 161 1598 1711 1131 947 851 1128 1096 1190 1174 1150 1008 1536 1497 1286 1261 1076 363 28 75 438 824
0 0 0 0 0 0 0 0 0 0 0 0 0 0 0 0 0 0 0 1 0 6 5 796 1388 1153 1033 1127 1269 1269 1324 1112 835 895 861 886 1245 1203 1265 629 35 41 104
0 0 0 0 0 0 0 0 0 0 0 0 0 0 0 0 0 0 0 0 0 0 0 124 246 791 1096 1237 1061 1013 1151 684 1184 828 944 873 878 855 1065 909 812 532 12
0 0 0 0 0 0 0 0 0 0 0 0 0 0 0 0 0 0 0 0 0 0 0 0 0 86 613 605 617 352 173 256 329 357 719 941 819 628 685 645 642 1271 769
0 0 0 0 0 0 0 1 2 1 0 0 0 0 0 2 3 1 4 5 5 4 2 0 0 0 439 290 301 367 86 232 199 232 606 532 631 805 359 492 614 959 776
0 0 0 0 0 0 0 0 0 0 0 0 0 0 1 4 5 8 4 1 1 4 3 1 6 7 5 224 545 263 17 3 218 76 101 294 694 835 139 779 924 843 768
0 0 0 0 1 2 1 0 0 0 1 6 5 4 4 5 9 2 4 6 7 10 8 7 7 2 7 12 54 447 773 195 254 161 48 413 686 323 442 1034 959 909 909
0 0 0 0 1 1 4 5 4 0 0 4 8 7 5 7 3 5 7 7 7 9 9 8 10 12 14 5 13 25 349 493 225 15 91 126 246 266 441 846 994 948 795
3 0 0 0 0 0 1 3 4 5 2 4 5 5 3 4 5 2 6 6 6 8 9 10 8 7 13 19 13 16 13 111 57 39 11 56 107 371 348 690 679 847 1020
CIN
-319 -332 -345 -261 -253 -274 -275 -272 -257 -185 -185 -214 -227 -205 -152 -103 -88 -74 -43 -18 -11 -4 0 -5 -0 -4 -27 -34 -23 -29 -34 -43 -16 -0 -0 0 0 0 0 -0 -4 0 -1
-362 -342 -388 -301 -263 -257 -267 -260 -231 -168 -143 -153 -167 -183 -156 -140 -113 -75 -38 -19 -10 -3 0 -6 -1 -27 -58 -63 -59 -57 -52 -55 -32 -2 -0 -0 0 0 0 -3 -6 -2 -1
-324 -325 -321 -340 -281 -281 -267 -250 -208 -158 -106 -116 -131 -149 -152 -134 -117 -82 -48 -27 -12 -1 0 -0 -0 -25 -65 -70 -86 -68 -58 -55 -44 -2 -1 0 0 0 0 -4 -3 -2 -0
-292 -308 -280 -335 -290 -267 -266 -254 -211 -151 -123 -99 -113 -120 -121 -121 -99 -86 -71 -41 -12 -2 0 -6 -1 -9 -48 -95 -100 -75 -69 -69 -50 -8 -1 -0 0 0 0 -1 -1 -1 -1
-288 -281 -268 -300 -271 -259 -245 -231 -211 -168 -152 -130 -101 -97 -94 -81 -71 -75 -82 -53 -12 -0 0 -7 -2 0 -55 -119 -125 -91 -68 -72 -70 -44 -3 0 0 0 0 0 0 0 -2
-277 -264 -324 -297 -257 -250 -242 -215 -196 -185 -179 -170 -137 -89 -77 -68 -56 -66 -85 -48 -9 -1 0 -3 -2 -4 -80 -131 -135 -107 -82 -77 -89 -26 -10 -1 0 -0 0 0 -1 -1 -3
-216 -240 -243 -311 -270 -230 -210 -207 -203 -201 -199 -191 -165 -117 -82 -69 -63 -76 -78 -48 -17 -5 -1 -1 -15 -22 -78 -120 -131 -122 -93 -87 -18 -25 -16 -3 0 -5 -1 -2 -2 -2 -1
-168 -218 -228 -316 -307 -266 -231 -223 -214 -205 -202 -176 -161 -132 -92 -75 -72 -83 -77 -51 -28 -14 -7 -5 -10 -36 -78 -103 -127 -144 -123 -102 -58 -7 -16 -11 -9 -12 -1 -2 -5 -4 -5
-162 -206 -204 -178 -200 -266 -255 -253 -258 -222 -198 -177 -150 -129 -104 -88 -73 -76 -68 -50 -32 -25 -22 -15 -12 -48 -74 -92 -125 -143 -151 -125 -35 -19 -28 -20 -64 -25 -3 -2 -7 -7 -7
-143 -169 -184 -181 -134 -127 -121 -246 -248 -205 -189 -194 -167 -131 -108 -93 -89 -91 -77 -52 -28 -32 -31 -26 -27 -42 -53 -70 -96 -118 -158 -146 -46 -28 -25 -29 -188 -58 -35 -2 -4 -8 -11
-111 -112 -152 -173 -159 -123 -102 -123 -202 -208 -180 -164 -121 -120 -97 -29 -24 -23 -48 -60 -44 -31 -27 -20 -33 -31 -34 -43 -60 -91 -151 -33 -28 -34 -31 -119 -157 -92 -48 -1 -8 -9 -11
0 -88 -77 -125 -129 -120 -126 -99 -69 -52 -36 -26 -24 -17 -16 -31 -30 -36 -42 -77 -62 -47 -35 -22 -12 -25 -37 0 -2 -86 -14 -18 -19 -28 -36 -206 -120 -58 -49 -3 -7 -9 -10
0 0 -569 -100 -117 -108 -87 -61 -68 -56 -56 -39 -6 -13 -22 -15 -13 -32 -42 -15 0 -35 0 -8 -3 0 0 0 0 -8 -17 -14 -17 -18 -37 -206 -122 -37 -21 -6 -4 -2 -10
0 0 0 -142 -91 -93 -79 -53 -68 -96 -102 -61 -43 -4 0 -1 -10 -17 -23 -40 -30 -13 -0 0 0 0 0 0 0 -3 -16 -21 -16 -15 -32 -171 -188 -54 -8 -0 -0 0 -5
0 0 0 -192 -46 -58 -62 -47 -38 -46 -100 -77 -54 -28 -2 0 0 -2 -6 -2 -3 -15 -24 -12 -0 -2 -4 0 0 0 -3 -14 -20 -20 -21 -147 -217 -153 -33 -4 -6 -10 -5
0 0 0 0 -103 -89 -57 -66 -113 -148 -193 -156 -171 -114 -20 -9 -1 0 0 0 -0 -0 -1 -1 -9 -9 -13 -6 -10 -2 0 -0 -6 -15 -18 -27 -208 -217 -151 -47 -9 -4 -14
0 0 0 0 0 0 0 0 -37 -7 -47 0 0 0 0 -17 -12 -128 -4 -9 0 0 -1 -0 -7 -0 -2 -2 -5 -11 -14 -12 -8 -15 -23 -38 -45 -237 -254 -202 -71 -18 -7
0 0 0 0 0 0 0 0 0 0 0 0 0 0 0 0 0 0 0 0 0 -106 0 0 -5 -8 -13 -2 -6 -7 -16 -27 -34 -37 -17 -27 -28 -33 -116 -298 -214 -104 -49
0 0 0 0 0 0 0 0 0 0 0 0 0 0 0 0 0 0 0 0 0 0 -121 -17 0 0 -1 -3 -2 -1 -0 -2 -18 -3 -134 -42 -21 -21 -28 -72 -272 -227 -200
0 0 0 0 0 0 0 0 0 0 0 0 0 0 0 0 0 0 0 0 0 0 0 -86 -53 -4 -0 0 0 0 0 -12 0 -0 -155 -75 -63 -47 -36 -56 -55 -90 -354
0 0 0 0 0 0 0 0 0 0 0 0 0 0 0 0 0 0 0 0 0 0 0 0 0 -95 -10 -5 0 -14 -11 -6 -17 -22 -54 -82 -46 -96 -61 -136 -126 -33 -70
0 0 0 0 0 0 0 0 0 0 0 0 0 0 0 0 0 0 0 0 0 0 0 0 0 0 -5 -4 -6 -1 -2 0 -6 -47 -11 -30 -40 -76 -103 -141 -222 -57 -70
0 0 0 0 0 0 0 0 0 0 0 0 0 0 0 0 0 0 0 0 0 0 0 0 0 0 0 -12 -0 -14 -20 -2 -30 -103 -81 -55 -29 -18 -147 -100 -106 -67 -71
0 0 0 0 0 0 0 0 0 0 0 0 0 0 0 0 0 0 0 0 0 0 0 0 0 0 0 0 -2 -0 -2 -40 -3 -16 -109 -31 -26 -63 -55 -45 -51 -63 -61
0 0 0 0 -0 0 0 0 0 0 0 0 0 0 0 0 0 0 0 0 0 0 0 0 0 0 0 0 0 0 -2 0 -9 -40 -34 -58 -44 -57 -70 -55 -36 -33 -51
0 0 0 0 0 0 0 0 0 0 0 0 0 0 0 0 0 0 0 0 0 0 0 0 0 0 0 0 0 0 -0 -56 -57 -81 -8 -71 -37 -34 -72 -51 -48 -19 -13
Wind_Speed
7 10 13 13 11 9 5 3 5 6 10 15 18 19 20 20 19 17 17 16 16 16 15 16 12 11 11 10 10 9 8 8 8 9 10 11 12 13 13 11 11 13 12
7 12 13 15 14 12 9 6 5 5 8 12 15 17 19 19 19 18 17 16 16 18 17 16 13 12 11 9 8 8 8 7 8 9 9 11 12 13 13 10 7 14 15
9 10 13 13 15 14 12 10 7 6 6 11 14 15 17 18 19 18 17 16 15 18 17 16 14 12 10 8 8 9 8 8 8 9 8 7 10 13 13 11 9 11 12
10 10 10 10 12 13 12 11 9 7 7 7 12 14 15 16 17 18 17 16 16 17 18 17 15 13 10 9 9 9 8 8 9 9 7 7 9 13 13 13 12 11 10
6 6 7 7 9 11 12 11 10 9 8 8 9 13 15 15 15 17 17 16 16 17 18 18 15 13 10 9 9 8 8 8 9 8 7 7 7 11 12 12 12 11 9
5 7 8 8 9 11 12 12 11 11 10 10 9 11 13 15 15 15 15 16 17 16 16 17 15 13 11 9 8 9 9 8 8 7 7 8 7 9 12 12 9 11 9
3 5 8 8 8 9 10 12 13 12 11 11 10 9 10 12 13 13 13 15 15 16 16 15 14 13 12 10 9 9 9 8 7 6 7 7 8 7 12 12 12 12 11
4 6 8 12 12 11 11 11 10 10 11 10 10 9 8 8 9 11 12 12 12 12 11 11 11 12 11 10 9 9 9 8 7 7 6 6 6 9 11 13 12 13 13
4 5 5 7 10 8 9 10 12 12 11 11 10 9 9 8 9 10 11 11 11 10 10 10 10 11 11 10 9 9 9 9 7 5 6 6 7 10 10 12 14 13 15
4 5 5 5 7 8 9 6 6 7 9 11 11 10 8 8 9 10 10 10 10 9 10 10 11 10 10 9 8 8 9 8 9 7 6 5 8 11 10 9 13 14 14
6 7 5 6 7 7 7 7 7 8 7 6 7 9 8 9 11 12 11 8 10 9 9 10 10 10 9 8 8 7 8 6 8 6 5 5 10 11 11 9 11 12 14
12 10 7 6 7 6 6 6 7 6 6 7 8 8 8 9 9 9 8 8 8 9 8 8 8 9 9 8 7 7 7 8 7 7 6 8 10 11 13 11 10 11 13
12 11 10 9 8 8 6 5 4 4 4 5 8 7 7 6 7 7 6 7 8 9 9 10 10 10 12 9 9 8 8 8 6 6 7 8 11 14 14 13 12 13 14
14 14 10 10 9 9 6 5 4 3 4 4 4 6 5 4 5 5 5 7 8 7 9 10 8 10 12 12 12 11 10 8 6 5 5 9 11 14 15 16 15 16 16
13 13 10 7 9 8 9 5 4 3 4 4 4 4 4 4 5 5 5 4 6 8 8 8 10 10 10 11 11 12 12 11 11 6 5 8 10 11 14 16 17 17 16
12 11 10 11 11 4 5 6 4 3 3 2 3 2 3 3 2 3 4 5 5 5 5 8 10 10 10 9 10 12 13 12 11 10 7 7 10 10 10 13 15 16 17
12 13 15 13 13 11 7 5 3 4 4 5 4 6 6 5 4 1 3 5 5 7 8 8 8 8 10 9 12 10 10 12 12 12 10 8 7 10 10 10 12 13 15
15 17 16 15 15 12 11 7 5 6 4 5 4 4 6 5 4 3 2 3 3 4 7 8 7 8 8 9 10 11 10 10 13 13 10 8 9 8 8 12 13 12 11
17 17 18 18 18 15 11 8 7 8 6 5 4 5 6 6 5 2 1 3 5 5 5 5 7 9 10 9 9 7 8 7 9 7 10 8 12 11 9 10 14 15 13
17 17 17 14 17 15 10 6 4 6 7 7 6 7 8 6 6 4 1 2 3 4 5 5 6 6 9 9 7 7 6 6 8 8 7 7 10 11 10 9 8 9 15
18 19 19 18 16 13 11 9 6 7 6 7 8 11 10 8 8 6 4 5 4 4 5 6 6 8 6 5 6 8 12 7 9 11 8 9 12 12 12 10 7 9 11
17 18 18 17 16 12 9 9 5 7 5 6 8 9 11 11 9 7 6 5 6 5 7 7 6 4 5 7 5 3 4 10 13 12 8 10 15 10 12 13 13 15 12
16 16 15 15 15 13 13 7 8 6 9 8 10 9 11 12 11 9 7 6 6 4 5 7 8 9 6 4 13 5 4 6 8 8 15 12 15 11 11 14 15 16 16
12 12 14 13 14 12 13 11 13 8 9 10 10 9 9 11 11 10 10 10 9 7 7 6 6 7 7 9 6 11 12 4 5 4 6 12 15 14 15 12 14 16 16
8 10 10 12 12 12 12 13 9 12 10 10 9 11 10 9 11 11 12 11 10 8 9 9 9 9 6 8 9 5 7 9 9 4 5 6 10 11 13 14 14 13 16
12 12 11 11 12 13 14 15 15 12 10 9 12 10 9 10 9 11 13 10 10 10 10 9 10 10 9 8 8 11 10 8 9 9 9 8 10 11 13 14 14 13 13
Wind_Direction
192 151 138 131 125 122 125 104 100 123 140 145 146 146 147 148 147 148 150 149 149 149 148 144 134 128 119 110 102 109 110 111 118 123 127 127 126 126 123 115 135 123 123
145 158 144 138 135 135 136 121 102 111 133 142 145 148 151 150 150 153 155 156 155 153 151 148 139 129 124 120 119 118 118 128 132 133 134 135 134 132 129 119 139 126 134
143 155 153 145 143 143 143 141 130 115 128 141 147 151 153 154 155 157 159 159 161 159 160 156 152 143 139 139 139 132 132 138 133 137 147 147 146 144 143 138 130 132 135
144 151 158 151 143 143 144 144 144 141 137 148 148 151 156 158 162 161 163 165 166 165 165 169 165 160 160 163 155 144 146 139 137 139 163 157 147 152 152 145 145 147 141
129 150 153 151 147 145 147 151 156 157 158 157 160 161 161 165 169 166 166 170 172 171 170 175 176 167 173 177 168 154 153 150 143 169 156 163 157 157 160 155 156 156 168
146 160 150 160 169 165 163 162 164 168 174 175 172 170 169 170 172 172 170 173 177 177 177 180 181 166 177 187 178 161 166 165 168 166 167 159 168 159 171 165 156 160 161
170 175 173 169 185 186 179 174 173 174 178 183 184 181 176 174 173 174 178 179 180 180 183 184 181 168 181 191 186 170 169 173 194 168 173 177 184 182 177 177 169 170 170
247 204 192 186 188 194 194 187 182 178 179 186 187 188 190 184 179 180 186 188 186 185 185 182 170 175 186 193 193 169 171 185 195 191 189 194 186 201 189 178 181 175 177
305 247 237 219 204 209 213 201 187 180 181 185 191 192 192 192 189 191 194 196 194 191 187 180 177 181 188 193 196 175 172 184 204 199 202 206 201 211 210 185 186 183 186
299 263 256 252 232 219 220 216 204 202 192 184 186 193 198 198 201 198 198 204 204 198 195 188 184 185 188 197 201 184 174 184 215 205 212 211 201 214 219 220 195 190 192
292 265 240 235 228 228 235 228 212 205 197 189 200 195 187 211 211 213 214 205 208 205 204 198 187 184 185 196 208 209 184 212 207 219 214 185 207 218 228 216 196 194 197
319 303 263 242 240 233 235 238 233 231 227 221 211 211 211 212 212 218 219 211 217 214 212 208 194 186 186 208 210 214 226 223 217 222 220 189 204 219 219 209 202 198 204
311 297 278 225 217 217 220 220 219 222 218 220 228 217 212 211 216 209 221 220 223 212 224 214 209 215 211 210 211 214 222 226 224 225 225 194 209 221 222 214 215 207 207
315 296 286 237 213 212 208 208 223 203 212 217 210 204 220 208 202 210 218 217 222 222 225 224 220 220 217 214 217 219 221 229 231 235 233 203 206 222 232 231 223 219 215
310 318 309 271 222 205 195 204 206 208 227 208 197 196 188 215 222 207 207 213 227 226 227 226 231 224 217 214 217 223 224 228 235 228 238 210 222 219 232 241 241 228 217
358 11 11 23 10 300 208 170 144 122 88 78 59 39 232 192 211 250 224 212 211 204 207 230 236 232 226 212 211 216 227 228 234 234 234 236 225 240 229 242 257 237 230
20 21 21 24 27 29 31 41 63 82 103 103 96 61 54 40 27 308 239 244 234 204 208 222 238 237 231 221 218 208 217 226 226 228 231 231 229 220 239 231 245 244 229
27 26 24 18 19 17 20 29 29 44 55 66 69 81 71 68 39 13 321 291 328 326 251 225 223 227 235 230 222 221 213 214 224 214 229 245 238 231 207 218 229 238 236
29 27 25 21 16 7 11 28 32 36 34 36 35 47 54 47 47 65 12 318 334 304 297 277 234 220 227 223 221 216 217 222 235 247 181 236 245 243 228 203 210 218 225
30 30 28 24 16 11 8 358 22 41 35 25 18 26 24 16 10 358 358 350 324 296 278 274 287 256 233 230 205 220 207 196 216 236 174 225 233 235 237 223 227 227 216
30 29 26 23 20 19 17 6 3 18 10 20 14 9 8 7 6 5 352 340 336 299 290 285 277 276 245 230 224 217 240 259 227 221 213 207 231 224 230 213 211 230 224
26 25 25 24 18 22 27 21 5 334 1 359 355 355 2 355 356 354 357 349 335 314 297 283 269 272 248 201 222 236 162 209 234 230 217 210 222 215 212 226 211 237 233
25 24 20 20 17 16 11 29 31 19 11 353 348 351 353 351 348 356 353 346 329 301 293 296 290 263 248 232 203 174 169 220 232 216 224 221 220 211 219 227 221 224 229
25 18 32 17 16 15 15 22 37 41 19 345 333 337 340 348 343 354 352 353 341 324 304 294 286 283 273 250 267 224 222 162 210 201 230 224 220 214 220 223 223 221 224
42 38 23 29 19 19 11 34 22 33 27 330 328 337 351 345 343 353 350 345 342 328 318 312 303 282 266 265 257 266 249 227 223 222 243 219 230 230 227 228 226 223 223
17 14 27 33 20 11 22 22 27 11 357 339 348 342 347 350 341 352 340 346 338 325 320 315 304 294 288 268 262 268 257 246 221 221 234 241 231 217 224 231 227 228 225